Date String (YYYY-MM-DD hh:mm:ss) UTC,Instrument flags,absolute air pressure of the measurement (hPa),sample flow rate (lpm),inlet stack bypass flow (lpm),air temperature of the measurement (°C),ambient temperature measured by the external sensor (°C),aerosol sample conditioner tube jacket temperature (°C),OPC LED temperature (°C),internal box temperature (°C),relative humidity of the measurement (%),span deviation,mass concentration of particles derived from Lorenz-Mie calculation of OPC scattering (μg/m³),mass concentration of particles derived from Lorenz-Mie calculation of OPC scattering (μg/m³),mass concentration of particles derived from Lorenz-Mie calculation of OPC scattering (μg/m³)
DateTimeUTC,F1_M11,P_M11,Q1_M11,Q2_M11,T1_M11,T2_M11,T3_M11,T4_M11,T5_M11,U1_M11,ZSPAN_M11,X0_M11,X2_M11,X1_M11
2023-12-04 19:00:00,SystemResetWarning,0827.1,5.01,000.00,020.6,020.0,000.0,028.8,021.9,15.3,0000.0,0004.78,0000.59,0000.16
2023-12-04 19:01:00,SystemResetWarning,0827.0,5.01,000.00,020.6,020.0,000.0,028.8,021.9,15.4,0000.0,0004.90,0000.63,0000.16
2023-12-04 19:02:00,SystemResetWarning,0826.9,5.00,000.00,020.6,020.0,000.0,028.8,021.9,15.5,0000.0,0005.00,0000.66,0000.17
2023-12-04 19:03:00,SystemResetWarning,0826.8,4.98,000.00,020.6,020.0,000.0,028.8,021.9,15.5,0000.0,0004.98,0000.66,0000.16
2023-12-04 19:04:00,SystemResetWarning,0827.1,5.00,000.00,020.6,020.0,000.0,028.8,021.9,15.2,0000.0,0005.05,0000.68,0000.16
2023-12-04 19:05:00,SystemResetWarning,0827.1,5.00,000.00,020.6,020.0,000.0,028.8,021.9,15.4,0000.0,0004.95,0000.68,0000.16
2023-12-04 19:06:00,SystemResetWarning,0827.1,5.01,000.00,020.6,020.0,000.0,028.8,021.9,15.3,0000.0,0005.04,0000.72,0000.16
2023-12-04 19:07:00,SystemResetWarning,0827.2,5.01,000.00,020.6,020.0,000.0,028.8,021.9,15.2,0000.0,0005.10,0000.74,0000.16
2023-12-04 19:08:00,SystemResetWarning,0827.1,4.99,000.00,020.7,020.0,000.0,028.9,021.9,15.6,0000.0,0005.22,0000.72,0000.16
2023-12-04 19:09:00,SystemResetWarning,0827.1,4.98,000.00,020.7,020.0,000.0,028.9,021.9,15.4,0000.0,0003.71,0000.66,0000.16
2023-12-04 19:10:00,SystemResetWarning,0827.0,5.01,000.00,020.7,020.0,000.0,028.9,021.9,15.2,0000.0,0003.19,0000.59,0000.15
2023-12-04 19:11:00,SystemResetWarning,0827.0,5.00,000.00,020.7,020.0,000.0,028.9,021.9,15.6,0000.0,0002.32,0000.51,0000.15
2023-12-04 19:12:00,SystemResetWarning,0826.9,5.00,000.00,020.7,020.0,000.0,028.9,021.9,15.6,0000.0,0002.84,0000.49,0000.16
2023-12-04 19:13:00,SystemResetWarning,0826.8,5.00,000.00,020.7,020.0,000.0,028.9,021.9,15.5,0000.0,0002.87,0000.48,0000.16
2023-12-04 19:14:00,SystemResetWarning,0827.0,4.99,000.00,020.7,020.0,000.0,028.9,021.9,15.7,0000.0,0002.92,0000.51,0000.16
2023-12-04 19:15:00,SystemResetWarning,0827.1,5.00,000.00,020.7,020.0,000.0,028.9,021.9,15.6,0000.0,0002.83,0000.48,0000.16
2023-12-04 19:16:00,SystemResetWarning,0826.9,5.00,000.00,020.7,020.0,000.0,028.9,022.0,15.6,0000.0,0002.74,0000.45,0000.16
2023-12-04 19:17:00,SystemResetWarning,0827.1,5.00,000.00,020.7,020.0,000.0,028.9,022.0,15.4,0000.0,0002.63,0000.40,0000.16
2023-12-04 19:18:00,SystemResetWarning,0826.9,5.00,000.00,020.7,020.0,000.0,028.9,022.0,15.5,0000.0,0002.51,0000.36,0000.15
2023-12-04 19:19:00,SystemResetWarning,0826.9,5.00,000.00,020.7,020.0,000.0,028.9,022.0,15.2,0000.0,0002.11,0000.35,0000.15
2023-12-04 19:20:00,SystemResetWarning,0826.5,5.00,000.00,020.7,020.0,000.0,028.9,022.0,15.4,0000.0,0002.02,0000.37,0000.15
2023-12-04 19:21:00,SystemResetWarning,0826.8,5.01,000.00,020.7,020.0,000.0,028.9,022.0,15.4,0000.0,0002.14,0000.40,0000.16
2023-12-04 19:22:00,SystemResetWarning,0826.9,5.00,000.00,020.7,020.0,000.0,028.9,022.0,15.4,0000.0,0002.39,0000.42,0000.16
2023-12-04 19:23:00,SystemResetWarning,0827.0,5.00,000.00,020.7,020.0,000.0,029.0,021.9,15.5,0000.0,0002.19,0000.46,0000.16
2023-12-04 19:24:00,SystemResetWarning,0826.8,4.98,000.00,020.7,020.0,000.0,029.0,021.9,15.5,0000.0,0002.14,0000.48,0000.16
2023-12-04 19:25:00,SystemResetWarning,0826.7,5.00,000.00,020.7,020.0,000.0,029.0,022.0,15.5,0000.0,0002.12,0000.47,0000.16
2023-12-04 19:26:00,SystemResetWarning,0826.8,5.02,000.00,020.7,020.0,000.0,029.0,022.0,15.5,0000.0,0002.19,0000.49,0000.16
2023-12-04 19:27:00,SystemResetWarning,0826.8,5.00,000.00,020.7,020.0,000.0,029.0,022.0,15.5,0000.0,0002.32,0000.53,0000.17
2023-12-04 19:28:00,SystemResetWarning,0826.9,4.99,000.00,020.7,020.0,000.0,029.0,022.0,15.5,0000.0,0002.52,0000.58,0000.17
2023-12-04 19:29:00,SystemResetWarning,0826.9,4.99,000.00,020.7,020.0,000.0,029.0,022.0,15.6,0000.0,0002.70,0000.66,0000.17
2023-12-04 19:30:00,SystemResetWarning,0826.9,4.99,000.00,020.7,020.1,000.0,029.0,022.0,15.5,0000.0,0002.69,0000.67,0000.18
2023-12-04 19:31:00,SystemResetWarning,0827.0,5.00,000.00,020.7,020.1,000.0,029.0,022.0,14.9,0000.0,0002.66,0000.70,0000.19
2023-12-04 19:32:00,SystemResetWarning,0826.9,5.00,000.00,020.7,020.1,000.0,029.0,022.0,15.2,0000.0,0002.63,0000.69,0000.19
2023-12-04 19:33:00,SystemResetWarning,0826.7,5.00,000.00,020.8,020.1,000.0,029.0,022.1,15.2,0000.0,0002.72,0000.71,0000.20
2023-12-04 19:34:00,SystemResetWarning,0826.8,5.01,000.00,020.8,020.1,000.0,029.0,022.1,15.3,0000.0,0002.61,0000.71,0000.19
2023-12-04 19:35:00,SystemResetWarning,0826.8,5.01,000.00,020.8,020.1,000.0,029.0,022.0,15.5,0000.0,0002.58,0000.70,0000.19
2023-12-04 19:36:00,SystemResetWarning,0826.8,5.00,000.00,020.8,020.1,000.0,029.0,022.1,15.4,0000.0,0002.84,0000.69,0000.20
2023-12-04 19:37:00,SystemResetWarning,0826.6,4.99,000.00,020.8,020.1,000.0,029.0,022.1,15.4,0000.0,0003.22,0000.70,0000.20
2023-12-04 19:38:00,SystemResetWarning,0826.9,5.01,000.00,020.8,020.1,000.0,029.0,022.1,15.3,0000.0,0003.21,0000.68,0000.20
2023-12-04 19:39:00,SystemResetWarning,0826.8,5.01,000.00,020.8,020.1,000.0,029.0,022.1,15.4,0000.0,0003.15,0000.68,0000.20
2023-12-04 19:40:00,SystemResetWarning,0826.8,4.98,000.00,020.8,020.1,000.0,029.0,022.1,15.3,0000.0,0003.00,0000.63,0000.19
2023-12-04 19:41:00,SystemResetWarning,0826.9,4.99,000.00,020.8,020.1,000.0,029.0,022.1,15.3,0000.0,0003.61,0000.59,0000.19
2023-12-04 19:42:00,SystemResetWarning,0826.9,5.01,000.00,020.8,020.1,000.0,029.0,022.1,15.1,0000.0,0004.69,0000.54,0000.18
2023-12-04 19:43:00,SystemResetWarning,0826.6,5.00,000.00,020.8,020.1,000.0,029.0,022.1,15.3,0000.0,0005.95,0000.56,0000.18
2023-12-04 19:44:00,SystemResetWarning,0826.9,5.01,000.00,020.8,020.1,000.0,029.0,022.1,15.1,0000.0,0005.88,0000.53,0000.18
2023-12-04 19:45:00,SystemResetWarning,0827.0,5.00,000.00,020.8,020.1,000.0,029.1,022.1,15.1,0000.0,0005.39,0000.49,0000.18
2023-12-04 19:46:00,SystemResetWarning,0827.1,5.00,000.00,020.8,020.2,000.0,029.1,022.1,15.2,0000.0,0006.20,0000.51,0000.18
2023-12-04 19:47:00,SystemResetWarning,0827.0,4.99,000.00,020.9,020.2,000.0,029.1,022.1,15.4,0000.0,0006.12,0000.50,0000.18
2023-12-04 19:48:00,SystemResetWarning,0826.8,4.99,000.00,020.9,020.2,000.0,029.1,022.2,15.0,0000.0,0005.59,0000.47,0000.17
2023-12-04 19:49:00,SystemResetWarning,0826.8,5.01,000.00,020.9,020.2,000.0,029.1,022.2,15.0,0000.0,0005.55,0000.48,0000.18
2023-12-04 19:50:00,SystemResetWarning,0826.9,5.01,000.00,020.9,020.2,000.0,029.1,022.2,15.0,0000.0,0005.52,0000.46,0000.18
2023-12-04 19:51:00,SystemResetWarning,0827.0,5.00,000.00,020.9,020.2,000.0,029.1,022.1,14.9,0000.0,0005.62,0000.47,0000.18
2023-12-04 19:52:00,SystemResetWarning,0827.0,4.98,000.00,020.9,020.2,000.0,029.1,022.2,15.0,0000.0,0005.01,0000.48,0000.19
2023-12-04 19:53:00,SystemResetWarning,0827.1,5.00,000.00,020.9,020.2,000.0,029.1,022.2,15.0,0000.0,0003.66,0000.44,0000.18
2023-12-04 19:54:00,SystemResetWarning,0827.2,5.00,000.00,020.9,020.2,000.0,029.1,022.2,15.4,0000.0,0002.20,0000.38,0000.18
2023-12-04 19:55:00,SystemResetWarning,0827.3,5.01,000.00,020.9,020.2,000.0,029.1,022.2,15.6,0000.0,0001.99,0000.38,0000.18
2023-12-04 19:56:00,SystemResetWarning,0827.2,5.00,000.00,020.9,020.3,000.0,029.1,022.2,15.5,0000.0,0001.92,0000.38,0000.19
2023-12-04 19:57:00,SystemResetWarning,0827.2,5.00,000.00,020.9,020.3,000.0,029.2,022.2,15.3,0000.0,0001.01,0000.34,0000.19
2023-12-04 19:58:00,SystemResetWarning,0827.2,4.99,000.00,020.9,020.3,000.0,029.2,022.3,15.2,0000.0,0000.91,0000.36,0000.19
2023-12-04 19:59:00,SystemResetWarning,0827.2,4.99,000.00,021.0,020.3,000.0,029.2,022.3,15.4,0000.0,0000.96,0000.41,0000.20
